PDT,Max TemperatureF,Mean TemperatureF,Min TemperatureF,Max Dew PointF,MeanDew PointF,Min DewpointF,Max Humidity, Mean Humidity, Min Humidity, Max Sea Level PressureIn, Mean Sea Level PressureIn, Min Sea Level PressureIn, Max VisibilityMiles, Mean VisibilityMiles, Min VisibilityMiles, Max Wind SpeedMPH, Mean Wind SpeedMPH, Max Gust SpeedMPH,PrecipitationIn, CloudCover, Events, WindDirDegrees
2013-5-1,75,58,41,37,16,-8,71,25,5,30.25,30.10,29.94,10,10,7,23,12,32,0.00,0,,110
2013-5-2,73,60,42,7,2,-4,18,10,6,30.35,30.29,30.25,10,10,9,28,14,37,0.00,0,,126
2013-5-3,80,56,33,27,10,-2,35,15,5,30.25,30.08,29.96,10,10,9,17,5,22,0.00,0,,288
2013-5-4,78,63,48,34,27,21,50,24,12,29.96,29.81,29.73,10,10,9,17,7,29,0.00,0,,303
2013-5-5,69,55,41,37,31,19,66,44,18,29.89,29.81,29.74,10,10,8,28,7,34,0.00,0,,115
2013-5-6,62,52,41,45,37,32,93,61,34,29.99,29.92,29.88,10,10,2,17,7,30,0.00,5,Rain,287
2013-5-7,53,48,42,45,40,36,100,78,58,30.07,30.02,29.97,10,9,0,18,13,25,0.16,6,Rain,303
2013-5-8,60,53,46,46,42,37,82,69,51,30.14,30.10,30.06,10,10,8,17,12,24,0.00,6,,301
2013-5-9,64,57,50,48,46,45,87,71,49,30.19,30.15,30.12,10,8,4,18,11,24,0.00,3,Rain-Thunderstorm,303
2013-5-10,73,63,53,50,47,46,77,60,41,30.27,30.21,30.18,10,10,8,20,11,24,0.00,3,,301
2013-5-11,84,64,44,50,43,30,93,49,14,30.27,30.24,30.19,10,9,5,16,5,25,0.00,1,,284
2013-5-12,86,70,53,50,46,41,77,43,22,30.29,30.23,30.16,10,10,8,17,6,23,0.00,0,,308
2013-5-13,84,68,51,45,41,37,67,37,19,30.22,30.17,30.10,10,10,10,18,8,24,0.00,0,,315
2013-5-14,80,66,51,41,36,23,62,34,12,30.10,30.05,29.99,10,10,10,26,8,36,0.00,0,,303
2013-5-15,75,65,55,46,39,30,63,39,22,30.11,30.07,30.02,10,10,10,26,14,34,0.00,0,,301
2013-5-16,64,55,46,43,39,36,76,54,37,30.05,30.02,29.98,10,10,8,24,17,33,0.00,0,,303
2013-5-17,62,55,48,45,41,36,87,60,42,30.07,30.01,29.95,10,10,8,29,18,40,0.00,3,,301
2013-5-18,66,54,41,37,31,23,81,41,26,30.13,30.10,30.07,10,10,10,25,16,31,0.00,0,,304
2013-5-19,68,58,48,37,34,27,62,40,30,30.13,30.10,30.06,10,10,9,21,15,26,0.00,0,,297
2013-5-20,78,60,41,37,30,18,76,34,10,30.14,30.10,30.05,10,10,9,22,8,29,0.00,0,,199
2013-5-21,78,61,44,39,30,18,61,29,15,30.08,30.00,29.92,10,10,10,24,9,31,0.00,0,,307
2013-5-22,59,50,41,39,30,19,70,46,31,29.94,29.90,29.86,10,10,8,25,18,34,0.00,0,,306
2013-5-23,59,50,41,25,20,14,46,30,20,30.01,29.93,29.87,10,10,9,25,17,36,0.00,0,,301
2013-5-24,66,54,41,32,28,23,57,37,24,30.02,30.00,29.98,10,10,9,18,10,23,0.00,0,,302
2013-5-25,68,57,46,32,28,21,57,33,18,30.05,30.02,29.99,10,10,10,24,14,30,0.00,0,,297
2013-5-26,64,54,44,39,36,32,71,49,34,30.11,30.07,30.03,10,10,9,28,16,38,0.00,0,,302
2013-5-27,64,54,44,45,39,32,93,55,34,30.11,30.06,30.00,10,10,9,30,17,45,0.00,0,,305
2013-5-28,59,54,48,52,47,43,100,83,67,30.00,29.95,29.91,10,8,0,32,21,41,0.04,6,Rain,301
2013-5-29,68,57,46,50,46,41,100,66,37,29.99,29.95,29.89,10,9,1,29,17,39,0.00,1,,297
2013-5-30,73,58,44,45,41,37,76,49,29,30.04,30.00,29.96,10,10,9,24,15,30,0.00,0,,303
2013-5-31,77,62,48,39,36,32,54,36,24,30.10,30.06,30.04,10,10,9,20,11,25,0.00,0,,305